San Angelo, TX

12:12 PM CST on February 24, 2018 (GMT -0600)
San Angelo Regional-Mathis

Weather History for KSJT - November, 2011

Change the Weather History Date:

Saturday, November 19, 2011

  Actual Average Record
Temperature  
Mean Temperature 70 °F 54 °F  
Max Temperature 81 °F 67 °F 86 °F (1950)
Min Temperature 59 °F 41 °F 24 °F (1969)
Degree Days  
Heating Degree Days 0 11  
Month to date heating degree days 118 159  
Since 1 July heating degree days 183 250  
Cooling Degree Days 5 0  
Month to date cooling degree days 40 15  
Year to date cooling degree days 3753 2499  
Growing Degree Days 20 (Base 50)    
Moisture  
Dew Point 53 °F    
Average Humidity 57    
Maximum Humidity 84    
Minimum Humidity 30    
Precipitation  
Precipitation 0.00 in 0.03 in 1.02 in (1963)
Month to date precipitation 0.30 0.84  
Year to date precipitation 8.22 20.10  
Snow  
Snow 0.00 in 0.00 in T in (1953)
Month to date snowfall 0.0 0.1  
Since 1 July snowfall 0.0 0.1  
Snow Depth 0.00 in    
Sea Level Pressure  
Sea Level Pressure 29.85 in    
Wind  
Wind Speed 12 mph (SSW)    
Max Wind Speed 24 mph    
Max Gust Speed 33 mph    
Visibility 10 miles    
Events      
T = Trace of Precipitation, MM = Missing Value Source: NWS Daily Summary

Daily Weather History Graph

Daily Weather History Graph

Search for Another Location

Airport or City:

Trip Planner

Search our weather history database for the weather conditions in past years. The results will help you decide how hot, cold, wet, or windy it might be!

Date:

Astronomy

Nov. 19, 2011 Rise Set
Actual Time 7:12 AM CST 5:41 PM CST
Civil Twilight 6:46 AM CST 6:07 PM CST
Nautical Twilight 6:17 AM CST 6:37 PM CST
Astronomical Twilight 5:48 AM CST 7:05 PM CST
Moon 12:58 AM CST (11/19) 1:39 PM CST (11/19)
Length of Visible Light 11h 20m
Length of Day
10h 28m
Last Quarter, 38% of the Moon is Illuminated
Nov 19
Last Quarter
Nov 25
New
Dec 2
First Quarter
Dec 10
Full
Dec 17
Last Quarter

Hourly Weather History & Observations

Time (CST) Temp. Dew Point Humidity Pressure Visibility Wind Dir Wind Speed Gust Speed Precip Events Conditions
12:51 AM 59.0 °F 54.0 °F 83% 29.85 in 10.0 mi South 15.0 mph - N/A   Clear
1:51 AM 59.0 °F 54.0 °F 83% 29.84 in 10.0 mi South 18.4 mph 27.6 mph N/A   Clear
2:09 AM 60.8 °F 55.4 °F 82% 29.87 in 10.0 mi South 17.3 mph 24.2 mph N/A   Mostly Cloudy
2:51 AM 61.0 °F 55.9 °F 83% 29.83 in 10.0 mi South 19.6 mph 26.5 mph N/A   Overcast
3:38 AM 62.6 °F 57.2 °F 82% 29.86 in 10.0 mi South 20.7 mph 27.6 mph N/A   Overcast
3:51 AM 63.0 °F 57.0 °F 81% 29.82 in 10.0 mi South 17.3 mph 27.6 mph N/A   Overcast
4:26 AM 62.6 °F 57.2 °F 82% 29.85 in 10.0 mi South 18.4 mph 25.3 mph N/A   Scattered Clouds
4:51 AM 64.0 °F 57.9 °F 80% 29.81 in 10.0 mi South 19.6 mph 25.3 mph N/A   Scattered Clouds
5:51 AM 64.0 °F 57.0 °F 78% 29.82 in 10.0 mi South 23.0 mph 29.9 mph N/A   Clear
6:44 AM 64.4 °F 57.2 °F 77% 29.87 in 10.0 mi South 15.0 mph 21.9 mph N/A   Mostly Cloudy
6:51 AM 64.0 °F 57.0 °F 78% 29.84 in 10.0 mi SSW 12.7 mph - N/A   Mostly Cloudy
7:51 AM 64.4 °F 57.2 °F 77% 29.90 in 10.0 mi SSW 13.8 mph 20.7 mph N/A   Overcast
8:51 AM 66.0 °F 57.9 °F 75% 29.88 in 10.0 mi SSW 19.6 mph 25.3 mph N/A   Overcast
9:51 AM 70.0 °F 57.9 °F 65% 29.89 in 10.0 mi SSW 17.3 mph 20.7 mph N/A   Scattered Clouds
10:51 AM 72.0 °F 57.0 °F 59% 29.89 in 10.0 mi South 15.0 mph 23.0 mph N/A   Clear
11:51 AM 73.0 °F 55.9 °F 55% 29.86 in 10.0 mi SSW 12.7 mph 20.7 mph N/A   Clear
12:51 PM 77.0 °F 54.0 °F 45% 29.83 in 10.0 mi SW 12.7 mph - N/A   Clear
1:51 PM 79.0 °F 52.0 °F 39% 29.79 in 10.0 mi SSW 12.7 mph - N/A   Clear
2:51 PM 80.1 °F 50.0 °F 35% 29.78 in 10.0 mi SSW 13.8 mph 21.9 mph N/A   Clear
3:51 PM 80.1 °F 46.9 °F 31% 29.78 in 10.0 mi SW 12.7 mph 21.9 mph N/A   Clear
4:51 PM 78.1 °F 45.0 °F 31% 29.79 in 10.0 mi SSW 8.1 mph - N/A   Clear
5:51 PM 73.0 °F 44.1 °F 35% 29.81 in 10.0 mi South 5.8 mph - N/A   Clear
6:51 PM 70.0 °F 46.9 °F 44% 29.83 in 10.0 mi South 4.6 mph - N/A   Clear
7:51 PM 63.0 °F 46.0 °F 54% 29.86 in 10.0 mi South 5.8 mph - N/A   Clear
8:51 PM 63.0 °F 46.9 °F 56% 29.88 in 10.0 mi Calm Calm - N/A   Clear
9:51 PM 63.0 °F 48.0 °F 58% 29.89 in 10.0 mi WSW 4.6 mph - N/A   Clear
10:51 PM 62.1 °F 53.1 °F 72% 29.90 in 10.0 mi SW 8.1 mph - N/A   Clear
11:51 PM 59.0 °F 51.1 °F 75% 29.91 in 10.0 mi West 4.6 mph - N/A   Clear